Flag for U.S.A. Weather past 2 weeks in Glendale, Arizona, U.S.A.

Now
68 °F

Clear.


Feels Like: 68 °F
Forecast: 59 / 93 °F
Wind: 6 mph from Northeast

Location: Phoenix-Deer Valley Municipal Airport

Current Time: Mar 28, 2015 at 2:39:28 AM

Latest Report: Mar 28, 2015 at 1:53 AM


Visibility: 10 mi

Pressure: 29.96 "Hg

Humidity: 20%

Dew point: 25 °F

Location of GlendaleLocation

Historic Weather in Glendale — Graph

°F

Glendale temperature yesterday

Maximum temperature yesterday: 90 °F (at 3:53 PM)
Minimum temperature yesterday: 60 °F (at 6:53 AM)
Average temperature yesterday: 75 °F

Past Weeks' High & Low Weather Summary

 TemperatureHumidityPressure
High90 °F (Mar 27, 3:53 PM)96% (Mar 19, 4:53 AM)30.13 "Hg (Mar 19, 4:53 AM)
Low55 °F (Mar 19, 7:53 AM)6% (Mar 27, 3:53 PM)29.78 "Hg (Mar 17, 4:53 PM)
Average71 °F33%29.96 "Hg
* Reported Mar 13 12:53 AM — Mar 28 12:53 AM, Glendale, Weather by CustomWeather, © 2015

Note: Actual official high and low records may vary slightly from our data, if they occured in-between our weather recording intervals... More about our weather records

Advertising

Glendale weather history for previous 24 hours

 ConditionsComfort  
Time TempWeatherWind HumidityBarometerVisibility
12:53 AM
Sat, Mar 28
70 °FClear.9 mph18%29.96 "Hg10 mi
11:53 PM
Fri, Mar 27
70 °FClear.No wind20%29.96 "Hg10 mi
10:53 PM71 °FClear.10 mph19%29.96 "Hg10 mi
9:53 PM72 °FClear.9 mph20%29.96 "Hg10 mi
8:53 PM69 °FClear.No wind27%29.96 "Hg10 mi
7:53 PM76 °FClear.No wind16%29.94 "Hg10 mi
6:53 PM84 °FClear.5 mph8%29.92 "Hg10 mi
5:53 PM88 °FSunny.6 mph6%29.92 "Hg10 mi
4:53 PM89 °FSunny.7 mph6%29.93 "Hg10 mi
3:53 PM90 °FSunny.No wind6%29.93 "Hg10 mi
2:53 PM88 °FSunny.5 mph8%29.96 "Hg10 mi
1:53 PM88 °FSunny.3 mph7%29.99 "Hg10 mi
12:53 PM85 °FSunny.5 mph9%30.02 "Hg10 mi
11:53 AM83 °FSunny.3 mph11%30.03 "Hg10 mi
10:53 AM80 °FSunny.No wind12%30.06 "Hg10 mi
9:53 AM76 °FSunny.3 mph14%30.07 "Hg10 mi
8:53 AM71 °FSunny.No wind19%30.07 "Hg10 mi
7:53 AM65 °FSunny.No wind27%30.06 "Hg10 mi
6:53 AM60 °FSunny.No wind31%30.04 "Hg10 mi
5:53 AM62 °FClear.3 mph26%30.02 "Hg10 mi
4:53 AM63 °FClear.5 mph27%30.01 "Hg10 mi
3:53 AM64 °FClear.12 mph26%30.00 "Hg10 mi
2:53 AM64 °FClear.8 mph27%30.01 "Hg10 mi
Weather by CustomWeather, © 2015

See weather overviewHow to use our weather pages